Regional Weather Roundup
Issued by NWS Green Bay, WI

Home | Current Version | Previous Version | Text Only | Print | Product List | Glossary On
Versions: 1 2 3 4 5 6 7 8 9 10 11 12 13 14 15 16 17 18 19 20 21 22 23 24 25 26 27 28 29 30 31 32 33 34 35 36 37 38 39 40 41 42 43 44 45 46 47 48 49 50
000
ASUS43 KGRB 281510
RWRGRB

NORTH-CENTRAL AND NORTHEAST WISCONSIN REGIONAL WEATHER ROUNDUP
NATIONAL WEATHER SERVICE GREEN BAY WI
1000 AM CDT THU AUG 28 2014

WIZ005-009-010>012-018-019-281600-
NORTH CENTRAL WISCONSIN

CITY           SKY/WX    TMP DP  RH WIND       PRES   REMARKS
IRONWOOD       NOT AVBL
MANITOWISH WTR SUNNY     64  51  63 S5        30.16S
ARBOR VITAE    SUNNY     65  50  58 S6        30.16S
EAGLE RIVER    SUNNY     64  50  61 E3        30.17R
LAND O LAKES   SUNNY     65  47  53 S5        30.18R
RHINELANDER    SUNNY     63  48  58 E8        30.18R
PHILLIPS       PTSUNNY   64  49  57 SE7       30.15S
ANTIGO         CLOUDY    58  56  92 SE7       30.18S
TOMAHAWK       SUNNY     64  51  62 E6        30.16S
MERRILL        PTSUNNY   56  54  92 E6        30.17S
$$

WIZ013-073-281600-
NORTHEAST WISCONSIN

CITY           SKY/WX    TMP DP  RH WIND       PRES   REMARKS
IRON MOUNTAIN  MOSUNNY   64  53  67 VRB7      30.16S
MARINETTE      CLOUDY    64  54  68 S9        30.16S
OCONTO         CLOUDY    63  57  81 S7        30.17S
$$

WIZ017-030-035>037-045-281600-
CENTRAL WISCONSIN

CITY           SKY/WX    TMP DP  RH WIND       PRES   REMARKS
MEDFORD        SUNNY     64  53  67 E6        30.15S
WAUSAU         CLOUDY    58  57  97 SE9       30.15F
MOSINEE        FOG       57  57 100 SE5       30.17S VSB 1/2
MARSHFIELD     CLOUDY    59  57  93 SE7       30.15R FOG
WISC RAPIDS    CLOUDY    61  60  97 VRB3      30.16R
STEVENS POINT  CLOUDY    60  57  90 SE6       30.16S
WAUPACA        CLOUDY    68  60  74 SE7       30.16S
SHAWANO        CLOUDY    67  60  76 SE3       30.16S
CLINTONVILLE   CLOUDY    63  59  88 CALM      30.16S
$$

WIZ038-039-048-051-281600-
FOX VALLEY

CITY           SKY/WX    TMP DP  RH WIND       PRES   REMARKS
NWS GREEN BAY  CLOUDY    66  58  75 SE5       30.17R
APPLETON       PTSUNNY   66  55  68 S9        30.16S
OSHKOSH        CLOUDY    67  59  75 S9        30.15S
FOND DU LAC    PTSUNNY   67  57  70 S8        30.15S
$$

WIZ022-050-052-281600-
EAST CENTRAL WISCONSIN

CITY           SKY/WX    TMP DP  RH WIND       PRES   REMARKS
STURGEON BAY   CLOUDY    63  54  72 SE6       30.18S
MANITOWOC      MOSUNNY   66  58  75 SE13      30.17S
SHEBOYGAN      PTSUNNY   67  56  67 S8        30.17R
$$

LMZ563-521-522-541>543-281600-
LAKESHORE

STATION/POSITION TIME  TEMP    WIND        PRES    VSBY  WAVE
                       AIR SEA DIR/SP/G                  HT/PER
                 (UTC) (F)     (DEG/KT/KT) (MB)    (MI)  (FT/S)
SHEBOYGAN LKSHOR 1500   64 68  130/ 13/ 14 1021.6S
KEWAUNEE LKSHORE 1500   64     160/ 11/ 12 1020.7R
ALGOMA MARINA    1400          190/ 12/ 14   N/A
NORTHPORT PIER   1500   64     140/  9/ 12 1022.0R
N MID LAKE BUOY  1500   62 65  110/  8/  8 1022.2R         0
S GREEN BAY BUOY 1400   65     VRB  8/ 10  1022.3R
SISTER BAY LKSHO 1400   70        CALM       N/A
CHAMBERS ISLAND  1500   64     130/  5/  8 1021.7F
MENOMINEE LKSHOR 1500   64     160/  9/ 11 1022.0R
$$



USA.gov is the U.S. government's official web portal to all federal, state and local government web resources and services.